Weather History for KRNT - March, 2013

Change the Weather History Date:

Friday, March 29, 2013

  Actual Average Record
Temperature  
Mean Temperature 54 °F -  
Max Temperature 64 °F 53 °F 77 °F (2004)
Min Temperature 45 °F 39 °F 33 °F (2008)
Degree Days  
Heating Degree Days 11    
Growing Degree Days 4 (Base 50)    
Moisture  
Dew Point 45 °F    
Average Humidity 75    
Maximum Humidity 96    
Minimum Humidity 46    
Precipitation  
Precipitation 0.00 in - - ()
Sea Level Pressure  
Sea Level Pressure 30.23 in    
Wind  
Wind Speed 3 mph (NW)    
Max Wind Speed 8 mph    
Max Gust Speed -    
Visibility 10 miles    
Events      
Averages and records for this station are not official NWS values.
T = Trace of Precipitation, MM = Missing Value Source: NWS Daily Summary

Daily Weather History Graph

Daily Weather History Graph

Search for Another Location

Airport or City:

Trip Planner

Search our weather history database for the weather conditions in past years. The results will help you decide how hot, cold, wet, or windy it might be!

Date:

Astronomy

Mar. 29, 2013 Rise Set
Actual Time 6:52 AM PDT 7:34 PM PDT
Civil Twilight 6:21 AM PDT 8:05 PM PDT
Nautical Twilight 5:45 AM PDT 8:42 PM PDT
Astronomical Twilight 5:06 AM PDT 9:21 PM PDT
Moon 10:56 PM PDT (3/29) 7:53 AM PDT (3/29)
Length of Visible Light 13h 44m
Length of Day
12h 42m
Waning Gibbous, 93% of the Moon is Illuminated
Mar 29
Waning Gibbous
Apr 2
Last Quarter
Apr 10
New
Apr 18
First Quarter
Apr 25
Full

Hourly Weather History & Observations

Time (PDT) Temp. Windchill Dew Point Humidity Pressure Visibility Wind Dir Wind Speed Gust Speed Precip Events Conditions
12:53 AM 46.0 °F - 45.0 °F 96% 30.18 in 10.0 mi Calm Calm - N/A   Clear
1:53 AM 46.0 °F 44.8 °F 44.1 °F 93% 30.18 in 10.0 mi South 3.5 mph - N/A   Scattered Clouds
2:53 AM 46.0 °F - 43.0 °F 89% 30.19 in 10.0 mi Calm Calm - N/A   Mostly Cloudy
3:53 AM 45.0 °F - 43.0 °F 93% 30.21 in 10.0 mi Calm Calm - N/A   Overcast
4:53 AM 45.0 °F 43.5 °F 43.0 °F 93% 30.21 in 10.0 mi SSE 3.5 mph - N/A   Overcast
5:53 AM 46.0 °F - 43.0 °F 89% 30.22 in 10.0 mi Calm Calm - N/A   Overcast
6:53 AM 45.0 °F - 42.1 °F 90% 30.24 in 10.0 mi Calm Calm - N/A   Overcast
7:53 AM 46.9 °F - 43.0 °F 86% 30.25 in 10.0 mi Calm Calm - N/A   Overcast
8:53 AM 48.0 °F - 45.0 °F 89% 30.26 in 10.0 mi Calm Calm - 0.00 in   Mostly Cloudy
9:53 AM 50.0 °F - 46.9 °F 89% 30.26 in 10.0 mi NW 5.8 mph - N/A   Clear
10:53 AM 53.1 °F - 46.0 °F 77% 30.27 in 10.0 mi North 5.8 mph - N/A   Overcast
11:53 AM 55.9 °F - 46.0 °F 69% 30.27 in 10.0 mi NNW 4.6 mph - N/A   Clear
12:53 PM 57.9 °F - 46.0 °F 65% 30.25 in 10.0 mi NW 6.9 mph - N/A   Clear
1:53 PM 60.1 °F - 48.0 °F 64% 30.25 in 10.0 mi NNW 5.8 mph - N/A   Clear
2:53 PM 62.1 °F - 45.0 °F 53% 30.24 in 10.0 mi NW 6.9 mph - N/A   Clear
3:53 PM 63.0 °F - 42.1 °F 46% 30.22 in 10.0 mi NW 5.8 mph - N/A   Clear
4:53 PM 63.0 °F - 42.1 °F 46% 30.22 in 10.0 mi NW 5.8 mph - N/A   Clear
5:53 PM 63.0 °F - 43.0 °F 48% 30.21 in 10.0 mi NW 8.1 mph - N/A   Clear
6:53 PM 60.1 °F - 44.1 °F 55% 30.21 in 10.0 mi NW 8.1 mph - N/A   Clear
7:53 PM 57.0 °F - 46.0 °F 67% 30.22 in 10.0 mi WNW 6.9 mph - N/A   Clear
8:53 PM 55.0 °F - 46.0 °F 72% 30.24 in 10.0 mi NW 6.9 mph - N/A   Clear
9:53 PM 53.1 °F - 46.0 °F 77% 30.25 in 10.0 mi NNW 6.9 mph - N/A   Clear
10:53 PM 51.1 °F - 46.0 °F 83% 30.26 in 10.0 mi NNW 3.5 mph - N/A   Clear
11:53 PM 51.1 °F - 45.0 °F 80% 30.26 in 10.0 mi NW 4.6 mph - N/A   Clear